DW9440 Weather Reports


time (UTC)temp
C
wind
direction
speed
KPH
gust
KPH
rain 1hr
cm
rain 24hr
cm
rain mn
cm
humidity
%
barometer
mb
20260906040008 25 58 12.9 20.9 0.00 0.00 0.00 75 1013.1
20260906034506 26 65 11.3 22.5 0.00 0.00 0.00 76 1013.1
20260906033005 26 75 16.1 25.7 0.00 0.00 0.00 75 1013.0
20260906031504 26 62 8.0 20.9 0.00 0.00 0.00 76 1012.9
20260906030004 27 60 9.7 16.1 0.00 0.00 0.00 76 1012.8
20260906024501 27 52 4.8 11.3 0.00 0.00 0.00 77 1012.7
20260906023000 27 62 4.8 12.9 0.00 0.00 0.00 78 1012.5
20260906021502 28 46 8.0 17.7 0.00 0.00 0.00 77 1012.2
20260906014614 28 49 3.2 8.0 0.00 0.00 0.00 77 1011.7
20260906013059 28 38 0.0 3.2 0.00 0.00 0.00 76 1011.4
20260906011604 29 13 0.0 1.6 0.00 0.00 0.00 76 1011.3
20260906010058 29 3 0.0 4.8 0.00 0.00 0.00 75 1011.2
20260906004559 30 47 3.2 6.4 0.00 0.00 0.00 74 1011.0
20260906003105 30 31 0.0 3.2 0.00 0.00 0.00 73 1011.0
20260906001555 30 44 3.2 8.0 0.00 0.00 0.00 72 1011.2
20260906000056 31 13 4.8 9.7 0.00 0.00 0.00 71 1011.1
20260905234607 31 349 3.2 12.9 0.00 0.00 0.00 69 1010.9
20260905233054 32 57 6.4 14.5 0.00 0.00 0.00 67 1011.1
20260905231556 32 30 6.4 12.9 0.00 0.00 0.00 66 1011.0
20260905230053 32 55 4.8 12.9 0.00 0.00 0.00 64 1010.8
20260905224551 33 23 8.0 16.1 0.00 0.00 0.00 63 1010.9
20260905223052 33 54 4.8 14.5 0.00 0.00 0.00 62 1010.9
20260905221550 33 299 4.8 9.7 0.00 0.00 0.00 62 1010.9
20260905220052 33 51 1.6 16.1 0.00 0.00 0.00 62 1010.9
20260905214601 33 41 4.8 9.7 0.00 0.00 0.00 59 1010.9
20260905213048 33 322 6.4 17.7 0.00 0.00 0.00 60 1010.9
20260905211546 34 48 4.8 14.5 0.00 0.00 0.00 60 1011.0
20260905210047 34 39 3.2 12.9 0.00 0.00 0.00 61 1011.0
20260905204543 35 35 4.8 11.3 0.00 0.00 0.00 58 1011.1
20260905203043 35 356 3.2 6.4 0.00 0.00 0.00 57 1011.2
20260905201542 35 13 4.8 9.7 0.00 0.00 0.00 55 1011.3
20260905200046 35 326 0.0 12.9 0.00 0.00 0.00 56 1011.3
20260905194541 35 41 4.8 14.5 0.00 0.00 0.00 54 1011.5
20260905193039 37 266 1.6 6.4 0.00 0.00 0.00 51 1011.5
20260905191536 36 32 4.8 11.3 0.00 0.00 0.00 51 1011.5
20260905190035 35 244 1.6 4.8 0.00 0.00 0.00 54 1011.5
20260905184538 36 233 3.2 8.0 0.00 0.00 0.00 54 1011.7
20260905183036 35 105 1.6 8.0 0.00 0.00 0.00 53 1011.8
20260905181532 36 278 3.2 11.3 0.00 0.00 0.00 53 1012.0
20260905180030 35 275 8.0 11.3 0.00 0.00 0.00 51 1012.1
20260905174535 35 263 4.8 9.7 0.00 0.00 0.00 55 1012.2
20260905173027 35 240 3.2 8.0 0.00 0.00 0.00 56 1012.4
20260905171526 35 53 1.6 9.7 0.00 0.00 0.00 56 1012.4
20260905170026 34 326 1.6 9.7 0.00 0.00 0.00 57 1012.5
20260905164524 35 30 0.0 4.8 0.00 0.00 0.00 57 1012.5
20260905163023 35 13 0.0 6.4 0.00 0.00 0.00 59 1012.6
20260905161519 34 257 0.0 4.8 0.00 0.00 0.00 60 1012.5
20260905160036 34 250 1.6 4.8 0.00 0.00 0.00 59 1012.7
20260905154514 33 251 0.0 4.8 0.00 0.00 0.00 61 1012.7
20260905153012 32 267 0.0 3.2 0.00 0.00 0.00 63 1012.6
20260905151508 32 262 0.0 1.6 0.00 0.00 0.00 63 1012.4
20260905150006 31 253 1.6 6.4 0.00 0.00 0.00 66 1012.5
20260905144601 30 278 0.0 0.0 0.00 0.00 0.00 68 1012.2
20260905143058 30 250 0.0 0.0 0.00 0.00 0.00 69 1012.2
20260905141610 28 262 0.0 0.0 0.00 0.00 0.00 71 1012.1
20260905140059 27 250 0.0 0.0 0.00 0.00 0.00 71 1012.2
20260905134602 27 250 0.0 0.0 0.00 0.00 0.00 71 1012.3
20260905133053 26 240 0.0 0.0 0.00 0.00 0.00 71 1012.3
20260905131552 25 227 0.0 0.0 0.00 0.00 0.00 66 1012.4
20260905130039 25 227 0.0 0.0 0.00 0.00 0.00 66 1012.3
20260905124537 25 214 0.0 0.0 0.00 0.00 0.00 62 1012.4
20260905123035 24 216 0.0 0.0 0.00 0.00 0.00 59 1012.2
20260905121535 23 216 0.0 0.0 0.00 0.00 0.00 64 1012.1
20260905120037 23 151 0.0 0.0 0.00 0.00 0.00 66 1011.8
20260905114555 23 150 0.0 0.0 0.00 0.00 0.00 66 1011.6
20260905113031 23 150 0.0 0.0 0.00 0.00 0.00 66 1011.6
20260905111531 23 150 0.0 0.0 0.00 0.00 0.00 66 1011.3
20260905110029 23 150 0.0 0.0 0.00 0.00 0.00 70 1011.2
20260905104532 23 150 0.0 0.0 0.00 0.00 0.00 70 1011.2
20260905103129 23 150 0.0 1.6 0.00 0.00 0.00 70 1011.3
20260905101526 23 233 0.0 0.0 0.00 0.00 0.00 71 1011.3
20260905100025 23 198 1.6 9.7 0.00 0.00 0.00 72 1011.4
20260905094523 23 226 0.0 0.0 0.00 0.00 0.00 71 1011.3
20260905093025 23 226 0.0 0.0 0.00 0.00 0.00 72 1011.4
20260905091520 24 226 0.0 0.0 0.00 0.00 0.00 72 1011.5
20260905090019 24 226 0.0 0.0 0.00 0.00 0.00 73 1011.5
20260905084519 24 226 0.0 0.0 0.00 0.00 0.00 74 1011.6
20260905083018 24 226 0.0 0.0 0.00 0.00 0.00 73 1011.6
20260905081518 25 226 0.0 0.0 0.00 0.00 0.00 74 1011.9
20260905080021 25 226 0.0 0.0 0.00 0.00 0.00 73 1012.0
20260905074518 26 226 0.0 0.0 0.00 0.00 0.00 71 1012.0
20260905073019 25 219 0.0 0.0 0.00 0.00 0.00 70 1012.0
20260905071514 25 213 0.0 1.6 0.00 0.00 0.00 63 1012.0
20260905070012 24 205 0.0 4.8 0.00 0.00 0.00 59 1012.0
20260905064511 24 212 0.0 0.0 0.00 0.00 0.00 65 1011.9
20260905063006 25 212 0.0 0.0 0.00 0.00 0.00 72 1012.0
20260905061502 25 212 0.0 0.0 0.00 0.00 0.00 72 1012.0
20260905060001 25 212 0.0 0.0 0.00 0.00 0.00 71 1012.0
20260905054604 26 212 0.0 0.0 0.00 0.00 0.00 70 1011.9
20260905053058 26 212 0.0 1.6 0.00 0.00 0.00 70 1011.8
20260905051609 26 212 0.0 0.0 0.00 0.00 0.00 71 1011.7
20260905050104 26 212 0.0 0.0 0.00 0.00 0.00 72 1011.6
20260905044557 26 212 0.0 0.0 0.00 0.00 0.00 72 1011.8
20260905043051 26 212 0.0 1.6 0.00 0.00 0.00 73 1011.8
20260905041551 25 212 0.0 0.0 0.00 0.00 0.00 75 1011.9